Temp
68 66 64 55 49 53 45 39 41 45 52 61 61 62 63 62 64 63 63 64 64 65 66 66 65 66 65 69 72 73 75 75
66 66 65 59 60 47 44 36 36 43 45 49 55 59 60 60 60 60 62 63 64 65 66 67 65 66 67 68 70 73 73 75
60 56 52 54 51 48 45 42 38 36 44 54 56 57 58 59 60 59 60 63 63 64 65 66 66 66 68 69 68 69 72 74
52 59 61 56 52 48 43 42 41 40 42 59 58 59 59 59 60 61 62 63 63 63 64 65 66 65 67 68 69 69 70 71
48 52 57 52 54 51 45 41 41 39 43 59 57 58 59 59 60 59 60 62 62 62 62 63 64 66 66 67 69 68 67 67
43 49 52 49 55 55 48 40 41 43 48 53 55 56 58 58 59 59 60 61 60 61 61 62 63 64 64 65 68 68 67 67
50 54 54 54 55 55 49 49 45 50 47 52 55 56 57 58 59 59 60 61 61 61 61 62 63 63 64 66 67 67 65 67
46 55 55 53 56 57 56 53 51 51 50 55 57 57 57 58 57 57 59 61 62 62 63 62 62 63 65 66 66 66 65 65
43 50 49 44 50 53 53 54 53 48 52 54 55 55 56 57 57 57 59 61 62 62 62 64 65 64 64 65 66 66 65 64
39 40 34 49 55 57 55 55 55 54 54 55 55 56 57 57 56 58 59 61 62 62 64 64 64 63 64 65 65 66 65 65
38 36 45 52 54 53 50 50 56 54 55 57 57 56 56 59 59 59 60 61 62 62 62 62 62 63 63 62 63 63 63 64
37 36 36 47 57 59 56 43 57 55 55 55 54 47 50 59 60 59 60 62 62 61 62 61 61 62 61 60 61 60 61 62
39 38 44 53 58 58 43 45 57 56 55 53 51 53 57 59 59 60 60 62 62 61 60 60 61 60 59 59 59 60 62 62
39 37 38 56 56 50 52 55 57 57 56 55 54 56 56 58 59 59 60 62 61 60 59 60 61 61 60 59 60 61 62 61
44 43 52 55 55 58 56 55 57 56 58 57 56 56 57 58 58 59 60 61 61 60 60 61 61 62 60 60 61 61 60 59
46 52 52 56 58 59 60 58 59 59 58 57 56 57 57 57 57 58 60 61 61 60 59 60 61 61 61 61 61 61 60 59
45 51 54 59 59 59 60 60 60 60 59 59 57 56 58 57 58 58 60 60 59 59 59 61 61 61 62 61 61 60 59 59
45 53 53 54 57 59 57 58 58 58 58 59 58 56 59 57 58 59 59 59 59 59 60 60 61 62 62 61 61 60 59 59
50 54 53 55 58 59 57 59 59 59 59 58 59 58 58 57 58 57 59 60 59 59 59 60 60 60 61 61 61 59 59 59
MSLP
1007.00 1006.91 1007.49 1008.56 1009.82 1010.83 1012.06 1013.07 1012.78 1011.44 1009.91 1008.60 1008.40 1008.43 1008.43 1008.64 1008.68 1008.56 1008.45 1008.22 1007.80 1007.15 1006.73 1006.13 1005.33 1005.04 1004.30 1003.14 1003.22 1003.33 1003.62 1004.22
1007.59 1007.55 1008.07 1008.74 1010.00 1011.32 1012.71 1013.72 1013.50 1012.14 1010.93 1009.48 1009.13 1008.92 1008.81 1008.79 1008.67 1008.70 1008.51 1008.32 1007.84 1007.29 1006.91 1006.40 1005.63 1005.22 1004.47 1003.93 1003.64 1003.66 1003.85 1003.97
1008.80 1008.92 1009.37 1009.78 1010.66 1012.07 1013.53 1014.20 1014.36 1013.38 1011.62 1009.50 1009.15 1009.08 1009.07 1008.93 1008.73 1008.53 1008.15 1008.00 1007.72 1007.44 1007.08 1006.48 1005.71 1005.22 1004.43 1004.24 1004.27 1004.19 1004.16 1003.95
1010.31 1009.79 1009.89 1010.17 1010.99 1012.07 1013.68 1014.50 1014.39 1013.67 1011.35 1009.40 1009.23 1009.10 1008.96 1008.70 1008.54 1008.34 1008.20 1007.89 1007.74 1007.57 1007.23 1006.60 1005.93 1005.36 1004.86 1004.53 1004.49 1004.36 1004.22 1004.10
1011.30 1011.16 1010.50 1010.67 1011.12 1011.89 1012.94 1013.88 1014.05 1013.75 1011.35 1009.54 1009.37 1009.23 1009.06 1008.95 1008.53 1008.24 1008.12 1007.75 1007.61 1007.51 1007.32 1006.95 1006.35 1005.97 1005.37 1005.08 1004.84 1004.70 1004.22 1004.20
1011.93 1011.41 1011.10 1011.29 1011.18 1011.53 1012.45 1013.42 1013.23 1012.53 1011.10 1010.07 1009.54 1009.30 1009.16 1008.98 1008.69 1008.41 1008.07 1007.65 1007.30 1007.18 1007.26 1007.09 1006.71 1006.29 1006.00 1005.44 1004.80 1004.53 1004.22 1003.70
1011.90 1011.49 1011.27 1010.97 1010.92 1011.03 1011.63 1011.50 1012.00 1011.12 1011.13 1009.96 1009.51 1009.37 1009.29 1009.20 1008.92 1008.66 1008.11 1007.53 1007.11 1006.87 1007.03 1006.92 1006.72 1006.47 1006.28 1005.78 1005.05 1004.59 1004.12 1003.52
1012.32 1011.50 1011.22 1010.91 1010.36 1010.37 1010.15 1010.28 1010.45 1010.40 1010.26 1009.30 1009.38 1009.34 1009.31 1009.18 1009.05 1008.69 1008.14 1007.57 1007.06 1006.79 1006.90 1006.86 1006.64 1006.35 1006.11 1005.88 1005.25 1004.57 1004.41 1004.36
1012.58 1011.74 1011.38 1010.91 1009.56 1009.40 1009.48 1009.50 1009.71 1009.92 1009.58 1009.60 1009.42 1009.51 1009.29 1008.98 1008.82 1008.47 1007.87 1007.31 1006.95 1006.57 1006.66 1006.50 1006.48 1006.25 1006.43 1006.02 1005.35 1005.17 1005.03 1004.84
1013.51 1012.67 1011.80 1009.95 1009.41 1009.13 1009.20 1009.20 1009.32 1009.43 1009.34 1009.60 1009.52 1009.35 1009.07 1008.62 1008.45 1008.07 1007.69 1007.22 1006.76 1006.57 1006.41 1006.43 1006.39 1006.44 1006.47 1005.86 1005.44 1005.27 1005.09 1005.05
1014.29 1013.46 1011.75 1010.12 1009.61 1009.50 1009.44 1009.31 1008.99 1009.37 1009.38 1009.35 1009.37 1009.29 1008.63 1008.22 1008.06 1007.94 1007.67 1007.38 1007.10 1006.81 1006.77 1006.81 1006.71 1006.31 1006.29 1005.89 1005.93 1006.00 1005.96 1005.65
1014.72 1013.75 1012.08 1010.41 1009.85 1009.67 1009.84 1009.54 1009.14 1009.36 1009.37 1009.39 1009.50 1009.59 1008.68 1008.02 1007.95 1007.71 1007.54 1007.27 1007.20 1006.87 1006.78 1007.02 1007.19 1006.98 1006.46 1006.43 1006.43 1006.10 1005.88 1005.73
1013.96 1013.23 1011.55 1010.30 1009.88 1009.91 1009.96 1009.92 1008.97 1009.12 1009.06 1009.28 1009.50 1008.95 1008.20 1007.85 1007.59 1007.46 1007.37 1007.15 1007.28 1007.26 1007.10 1007.13 1007.12 1007.00 1006.92 1006.77 1006.69 1006.48 1006.26 1006.21
1013.77 1012.75 1011.38 1010.12 1010.26 1010.10 1009.16 1008.80 1008.75 1008.76 1008.71 1008.79 1008.56 1008.23 1008.16 1007.69 1007.40 1007.15 1007.14 1007.25 1007.63 1007.70 1007.46 1007.33 1007.02 1006.99 1006.98 1006.95 1006.89 1006.90 1006.75 1006.66
1013.01 1011.56 1010.11 1009.67 1009.36 1008.60 1008.62 1008.80 1008.51 1008.47 1008.22 1008.28 1008.17 1007.86 1007.74 1007.46 1007.21 1007.10 1006.90 1007.13 1007.30 1007.76 1007.96 1007.55 1007.32 1007.05 1006.71 1006.96 1006.75 1006.90 1006.90 1006.92
1012.43 1010.53 1009.80 1009.02 1008.64 1008.42 1008.19 1008.31 1008.15 1008.19 1008.07 1007.90 1007.75 1007.49 1007.44 1007.11 1006.95 1007.07 1007.03 1006.80 1007.21 1007.56 1007.64 1007.43 1007.33 1007.22 1007.15 1007.18 1007.06 1006.85 1007.08 1006.96
1011.53 1010.27 1009.31 1008.40 1008.04 1008.17 1008.15 1008.17 1008.09 1007.87 1007.82 1007.67 1007.54 1007.32 1007.21 1006.83 1006.74 1006.97 1006.98 1006.98 1007.07 1007.32 1007.43 1007.40 1007.35 1007.38 1007.27 1007.12 1007.17 1007.33 1007.37 1007.45
1010.71 1009.55 1009.40 1008.62 1008.13 1008.05 1008.10 1008.06 1007.90 1007.83 1007.69 1007.44 1007.41 1007.25 1007.05 1006.86 1006.71 1006.89 1007.01 1007.06 1007.12 1007.23 1007.31 1007.31 1007.17 1007.19 1007.35 1007.41 1007.46 1007.55 1007.61 1007.52
1010.09 1009.42 1009.08 1008.69 1008.10 1007.90 1008.03 1007.94 1007.82 1007.64 1007.53 1007.54 1007.29 1007.20 1007.08 1007.13 1006.98 1006.75 1006.86 1007.06 1007.18 1007.04 1007.16 1007.18 1007.29 1007.27 1007.26 1007.37 1007.46 1007.48 1007.68 1007.47
Wind_Speed
3 1 4 2 4 3 5 2 1 4 6 5 2 4 5 7 6 7 7 6 7 10 10 12 10 9 10 6 7 12 15 14
3 2 5 6 2 3 5 1 3 5 5 5 2 8 7 9 7 7 5 6 7 8 10 13 9 7 7 8 2 5 9 12
3 4 1 5 4 6 5 4 3 2 8 7 6 4 8 8 7 8 8 6 6 6 9 12 9 6 5 6 6 4 3 9
3 4 2 2 3 5 6 6 2 3 9 3 6 6 6 8 8 7 7 7 6 5 6 8 10 9 9 7 6 6 6 5
8 6 5 1 3 4 4 4 6 4 8 3 5 6 6 8 9 8 7 8 6 7 5 5 7 9 8 7 7 8 9 8
8 7 4 3 5 5 5 4 4 8 8 11 9 7 8 8 9 9 10 10 7 6 4 3 3 5 6 8 8 8 10 13
6 7 4 6 7 6 8 8 7 7 7 10 8 6 6 5 7 9 11 11 9 6 5 4 2 2 4 6 6 6 7 5
5 9 9 6 10 10 13 4 6 6 8 5 4 6 5 7 6 8 10 10 9 6 4 4 3 1 3 5 5 6 7 7
8 5 3 6 8 7 4 3 4 5 7 4 7 7 6 6 5 8 10 11 10 7 1 2 3 4 2 3 2 3 3 3
4 2 3 7 3 1 4 4 5 7 5 4 7 6 10 7 7 9 8 9 8 5 1 3 2 2 1 4 4 4 4 1
2 3 6 5 2 2 0 6 2 3 6 6 5 6 8 4 5 7 8 8 8 3 2 4 4 4 4 7 6 6 6 6
2 2 4 5 2 1 2 6 3 4 8 6 4 4 6 3 4 8 6 5 1 1 3 4 3 2 6 5 5 6 7 6
3 4 7 5 4 3 1 8 3 5 8 4 5 7 5 7 7 4 4 1 1 0 3 1 1 4 5 4 5 4 5 6
2 1 5 5 2 4 8 4 3 4 5 5 8 11 7 11 8 4 4 6 4 3 1 1 1 3 4 5 3 3 4 4
8 7 7 5 7 6 3 4 6 4 6 4 9 8 6 7 5 3 6 8 8 5 4 3 1 1 5 4 3 3 5 5
2 7 7 8 6 6 4 7 5 5 7 5 8 7 7 7 4 3 3 8 5 5 5 3 3 3 3 2 4 5 5 5
6 9 7 7 5 3 4 4 4 6 3 5 5 7 6 4 2 3 4 4 6 4 4 3 3 3 2 3 3 3 3 4
7 9 5 8 3 1 4 5 6 5 5 4 3 5 4 3 2 0 4 4 5 5 4 2 2 3 3 3 3 2 2 2
6 3 4 8 6 2 3 5 7 5 4 4 4 3 2 2 2 2 3 3 2 6 6 5 3 4 1 1 2 2 2 0
Wind_Direction
10 357 118 346 40 186 120 17 62 260 289 325 163 290 312 312 316 319 329 320 313 312 311 309 321 321 339 321 204 192 193 196
272 42 23 98 162 38 10 326 292 309 295 241 248 265 281 298 308 317 303 316 314 321 326 313 321 303 344 4 59 183 185 198
0 19 19 7 20 60 112 125 159 296 277 215 265 279 265 278 292 299 305 315 320 330 326 317 325 316 333 353 357 3 270 213
218 313 267 215 125 117 118 273 223 173 263 271 243 266 284 289 288 295 295 299 299 311 324 335 342 338 338 331 333 325 310 274
345 358 345 190 180 124 98 70 209 175 260 267 270 290 275 282 296 298 302 305 297 302 338 336 342 344 346 339 308 308 293 273
191 214 159 239 229 209 154 148 209 226 275 292 294 262 292 307 306 310 307 298 284 292 323 322 351 336 321 316 318 312 290 266
240 236 209 233 250 241 195 213 189 249 220 260 264 293 290 289 296 309 305 308 294 288 301 287 14 320 303 300 304 320 337 338
240 246 234 235 247 246 247 232 237 251 262 243 286 305 292 278 290 294 294 301 293 284 284 306 321 19 358 303 321 347 3 357
272 260 277 296 232 211 217 215 201 226 236 351 318 327 304 304 293 283 290 298 306 289 235 308 13 6 342 308 39 19 17 11
260 354 218 248 315 322 220 257 225 271 278 273 262 276 281 248 254 282 290 303 306 299 30 55 7 56 190 24 19 37 19 320
201 211 282 288 297 281 122 288 231 252 293 283 306 316 296 277 236 262 282 303 308 2 93 68 14 8 33 43 32 30 24 4
137 204 241 238 286 53 97 293 246 209 259 265 346 326 266 263 282 292 293 309 259 183 72 84 13 34 66 47 40 28 5 4
192 240 287 236 211 154 104 240 242 217 248 266 216 211 250 291 281 250 279 280 126 127 121 93 69 77 67 49 30 7 14 5
117 199 295 163 109 187 220 257 253 249 237 248 254 275 260 274 280 277 259 131 82 325 155 181 153 108 101 67 1 11 23 24
172 221 229 218 239 246 161 235 264 252 279 265 278 278 282 272 276 283 164 140 131 229 229 176 147 113 68 354 30 50 50 24
79 273 242 257 253 245 221 232 287 278 271 274 276 291 286 259 250 256 208 152 153 176 204 139 95 70 76 53 29 51 39 17
252 281 284 274 236 318 329 318 289 287 264 282 293 300 296 272 265 210 168 133 132 188 199 147 130 110 108 68 55 48 35 2
234 244 200 261 299 244 268 283 273 290 300 287 274 297 301 295 38 20 147 150 151 178 180 174 111 83 76 120 120 108 72 351
251 355 232 267 269 236 252 253 261 269 248 285 308 288 315 278 219 172 149 129 178 185 182 162 149 129 65 74 141 128 162 249